Year,Month,Day,Hour,Minute,Value (Times are PST for windgust in km/hr)
2010,05,05,00,00,3.20
2010,05,05,00,01,1.60
2010,05,05,00,02,1.60
2010,05,05,00,03,3.20
2010,05,05,00,04,1.60
2010,05,05,00,05,3.20
2010,05,05,00,06,3.20
2010,05,05,00,07,3.20
2010,05,05,00,08,4.80
2010,05,05,00,18,1.60
2010,05,05,00,20,1.60
2010,05,05,00,22,4.80
2010,05,05,00,23,1.60
2010,05,05,00,24,1.60
2010,05,05,00,25,3.20
2010,05,05,00,26,1.60
2010,05,05,00,27,3.20
2010,05,05,00,30,1.60
2010,05,05,00,31,4.80
2010,05,05,00,32,3.20
2010,05,05,00,33,3.20
2010,05,05,00,34,3.20
2010,05,05,00,35,3.20
2010,05,05,00,36,3.20
2010,05,05,00,37,1.60
2010,05,05,00,38,1.60
2010,05,05,00,39,3.20
2010,05,05,00,40,3.20
2010,05,05,00,42,1.60
2010,05,05,00,43,4.80
2010,05,05,00,44,4.80
2010,05,05,00,45,1.60
2010,05,05,00,46,3.20
2010,05,05,00,47,3.20
2010,05,05,00,48,1.60
2010,05,05,00,50,1.60
2010,05,05,00,51,1.60
2010,05,05,00,57,1.60
2010,05,05,01,00,1.60
2010,05,05,01,03,1.60
2010,05,05,01,07,1.60
2010,05,05,01,08,3.20
2010,05,05,01,12,1.60
2010,05,05,01,19,1.60
2010,05,05,01,30,1.60
2010,05,05,01,31,1.60
2010,05,05,02,12,1.60
2010,05,05,02,18,1.60
2010,05,05,02,19,1.60
2010,05,05,02,21,1.60
2010,05,05,02,32,1.60
2010,05,05,02,39,1.60
2010,05,05,02,41,1.60
2010,05,05,03,00,1.60
2010,05,05,03,04,1.60
2010,05,05,03,05,1.60
2010,05,05,03,06,3.20
2010,05,05,03,07,1.60
2010,05,05,03,09,1.60
2010,05,05,03,11,1.60
2010,05,05,03,12,3.20
2010,05,05,03,13,1.60
2010,05,05,03,15,1.60
2010,05,05,03,20,1.60
2010,05,05,03,24,1.60
2010,05,05,03,32,1.60
2010,05,05,03,38,1.60
2010,05,05,03,40,1.60
2010,05,05,04,02,1.60
2010,05,05,04,09,1.60
2010,05,05,04,11,1.60
2010,05,05,04,12,1.60
2010,05,05,04,15,1.60
2010,05,05,04,16,1.60
2010,05,05,04,17,1.60
2010,05,05,04,18,1.60
2010,05,05,04,19,3.20
2010,05,05,04,20,1.60
2010,05,05,04,21,1.60
2010,05,05,04,22,1.60
2010,05,05,04,23,1.60
2010,05,05,04,24,1.60
2010,05,05,04,26,1.60
2010,05,05,04,28,1.60
2010,05,05,04,34,1.60
2010,05,05,04,35,1.60
2010,05,05,04,36,1.60
2010,05,05,04,37,1.60
2010,05,05,04,38,1.60
2010,05,05,04,40,1.60
2010,05,05,04,47,3.20
2010,05,05,04,48,3.20
2010,05,05,05,08,1.60
2010,05,05,05,09,1.60
2010,05,05,05,13,1.60
2010,05,05,05,25,1.60
2010,05,05,05,27,1.60
2010,05,05,05,29,1.60
2010,05,05,05,30,1.60
2010,05,05,05,31,1.60
2010,05,05,05,32,1.60
2010,05,05,05,34,1.60
2010,05,05,05,37,1.60
2010,05,05,05,45,1.60
2010,05,05,05,47,1.60
2010,05,05,05,48,1.60
2010,05,05,05,55,1.60
2010,05,05,06,09,1.60
2010,05,05,06,10,3.20
2010,05,05,06,11,1.60
2010,05,05,06,13,1.60
2010,05,05,06,40,1.60
2010,05,05,06,47,3.20
2010,05,05,06,48,3.20
2010,05,05,06,50,1.60
2010,05,05,06,52,1.60
2010,05,05,06,53,3.20
2010,05,05,06,54,3.20
2010,05,05,06,55,4.80
2010,05,05,06,56,1.60
2010,05,05,06,57,3.20
2010,05,05,06,58,1.60
2010,05,05,06,59,3.20
2010,05,05,07,00,1.60
2010,05,05,07,01,3.20
2010,05,05,07,02,3.20
2010,05,05,07,03,4.80
2010,05,05,07,04,1.60
2010,05,05,07,05,1.60
2010,05,05,07,07,1.60
2010,05,05,07,25,1.60
2010,05,05,07,29,1.60
2010,05,05,07,31,1.60
2010,05,05,07,32,1.60
2010,05,05,07,40,1.60
2010,05,05,07,41,4.80
2010,05,05,07,42,3.20
2010,05,05,07,43,3.20
2010,05,05,07,55,1.60
2010,05,05,07,57,1.60
2010,05,05,08,11,1.60
2010,05,05,08,12,1.60
2010,05,05,08,14,1.60
2010,05,05,08,15,1.60
2010,05,05,08,17,1.60
2010,05,05,08,21,1.60
2010,05,05,08,35,1.60
2010,05,05,08,36,1.60
2010,05,05,08,40,1.60
2010,05,05,08,42,1.60
2010,05,05,08,43,1.60
2010,05,05,08,44,1.60
2010,05,05,08,45,1.60
2010,05,05,08,46,1.60
2010,05,05,08,47,6.40
2010,05,05,08,48,4.80
2010,05,05,08,49,4.80
2010,05,05,08,50,4.80
2010,05,05,08,51,1.60
2010,05,05,08,52,1.60
2010,05,05,08,53,3.20
2010,05,05,08,54,1.60
2010,05,05,08,57,1.60
2010,05,05,08,58,1.60
2010,05,05,09,01,6.40
2010,05,05,09,02,8.10
2010,05,05,09,03,8.10
2010,05,05,09,04,6.40
2010,05,05,09,05,4.80
2010,05,05,09,06,8.10
2010,05,05,09,07,8.10
2010,05,05,09,08,4.80
2010,05,05,09,09,1.60
2010,05,05,09,10,6.40
2010,05,05,09,11,3.20
2010,05,05,09,12,6.40
2010,05,05,09,13,3.20
2010,05,05,09,14,6.40
2010,05,05,09,15,4.80
2010,05,05,09,16,1.60
2010,05,05,09,17,6.40
2010,05,05,09,18,4.80
2010,05,05,09,19,1.60
2010,05,05,09,20,1.60
2010,05,05,09,21,1.60
2010,05,05,09,22,6.40
2010,05,05,09,23,6.40
2010,05,05,09,24,4.80
2010,05,05,09,25,9.60
2010,05,05,09,26,9.60
2010,05,05,09,27,6.40
2010,05,05,09,28,1.60
2010,05,05,09,29,3.20
2010,05,05,09,30,8.10
2010,05,05,09,31,9.60
2010,05,05,09,32,6.40
2010,05,05,09,33,4.80
2010,05,05,09,34,1.60
2010,05,05,09,35,3.20
2010,05,05,09,36,1.60
2010,05,05,09,38,1.60
2010,05,05,09,39,1.60
2010,05,05,09,40,3.20
2010,05,05,09,41,6.40
2010,05,05,09,42,1.60
2010,05,05,09,43,6.40
2010,05,05,09,44,8.10
2010,05,05,09,45,6.40
2010,05,05,09,46,1.60
2010,05,05,09,47,4.80
2010,05,05,09,48,1.60
2010,05,05,09,49,1.60
2010,05,05,09,50,1.60
2010,05,05,09,51,8.10
2010,05,05,09,52,4.80
2010,05,05,09,53,4.80
2010,05,05,09,54,4.80
2010,05,05,09,55,4.80
2010,05,05,09,56,6.40
2010,05,05,09,57,4.80
2010,05,05,09,58,9.60
2010,05,05,09,59,6.40
2010,05,05,10,00,3.20
2010,05,05,10,01,3.20
2010,05,05,10,02,6.40
2010,05,05,10,03,1.60
2010,05,05,10,04,3.20
2010,05,05,10,05,6.40
2010,05,05,10,06,6.40
2010,05,05,10,07,6.40
2010,05,05,10,08,3.20
2010,05,05,10,09,1.60
2010,05,05,10,10,1.60
2010,05,05,10,11,1.60
2010,05,05,10,12,11.30
2010,05,05,10,13,8.10
2010,05,05,10,14,8.10
2010,05,05,10,15,6.40
2010,05,05,10,16,6.40
2010,05,05,10,17,8.10
2010,05,05,10,18,6.40
2010,05,05,10,19,6.40
2010,05,05,10,20,4.80
2010,05,05,10,21,4.80
2010,05,05,10,22,3.20
2010,05,05,10,23,3.20
2010,05,05,10,24,3.20
2010,05,05,10,25,9.60
2010,05,05,10,26,11.30
2010,05,05,10,27,8.10
2010,05,05,10,28,4.80
2010,05,05,10,29,3.20
2010,05,05,10,30,9.60
2010,05,05,10,31,6.40
2010,05,05,10,32,3.20
2010,05,05,10,33,4.80
2010,05,05,10,34,11.30
2010,05,05,10,35,16.10
2010,05,05,10,36,4.80
2010,05,05,10,37,11.30
2010,05,05,10,38,14.50
2010,05,05,10,39,6.40
2010,05,05,10,40,9.60
2010,05,05,10,41,8.10
2010,05,05,10,42,9.60
2010,05,05,10,43,3.20
2010,05,05,10,44,4.80
2010,05,05,10,45,6.40
2010,05,05,10,46,6.40
2010,05,05,10,47,11.30
2010,05,05,10,48,12.90
2010,05,05,10,49,14.50
2010,05,05,10,50,16.10
2010,05,05,10,51,12.90
2010,05,05,10,52,14.50
2010,05,05,10,53,9.60
2010,05,05,10,54,3.20
2010,05,05,10,55,9.60
2010,05,05,10,56,6.40
2010,05,05,10,57,11.30
2010,05,05,10,58,8.10
2010,05,05,10,59,16.10
2010,05,05,11,00,11.30
2010,05,05,11,01,6.40
2010,05,05,11,02,11.30
2010,05,05,11,03,16.10
2010,05,05,11,04,8.10
2010,05,05,11,05,11.30
2010,05,05,11,06,11.30
2010,05,05,11,07,11.30
2010,05,05,11,08,12.90
2010,05,05,11,09,1.60
2010,05,05,11,10,4.80
2010,05,05,11,11,9.60
2010,05,05,11,12,6.40
2010,05,05,11,13,6.40
2010,05,05,11,14,8.10
2010,05,05,11,15,9.60
2010,05,05,11,16,9.60
2010,05,05,11,17,11.30
2010,05,05,11,18,8.10
2010,05,05,11,19,16.10
2010,05,05,11,20,14.50
2010,05,05,11,21,16.10
2010,05,05,11,22,6.40
2010,05,05,11,23,8.10
2010,05,05,11,24,9.60
2010,05,05,11,25,11.30
2010,05,05,11,26,11.30
2010,05,05,11,27,14.50
2010,05,05,11,28,8.10
2010,05,05,11,29,8.10
2010,05,05,11,30,17.70
2010,05,05,11,31,16.10
2010,05,05,11,32,16.10
2010,05,05,11,33,14.50
2010,05,05,11,34,16.10
2010,05,05,11,35,17.70
2010,05,05,11,36,19.30
2010,05,05,11,37,11.30
2010,05,05,11,38,12.90
2010,05,05,11,39,9.60
2010,05,05,11,40,16.10
2010,05,05,11,41,14.50
2010,05,05,11,42,8.10
2010,05,05,11,43,6.40
2010,05,05,11,44,14.50
2010,05,05,11,45,8.10
2010,05,05,11,46,6.40
2010,05,05,11,47,8.10
2010,05,05,11,48,14.50
2010,05,05,11,49,17.70
2010,05,05,11,50,14.50
2010,05,05,11,51,9.60
2010,05,05,11,52,14.50
2010,05,05,11,53,6.40
2010,05,05,11,54,9.60
2010,05,05,11,55,8.10
2010,05,05,11,56,14.50
2010,05,05,11,57,20.90
2010,05,05,11,58,17.70
2010,05,05,11,59,14.50
2010,05,05,12,00,11.30
2010,05,05,12,01,11.30
2010,05,05,12,02,11.30
2010,05,05,12,03,11.30
2010,05,05,12,04,8.10
2010,05,05,12,05,9.60
2010,05,05,12,06,11.30
2010,05,05,12,07,8.10
2010,05,05,12,08,11.30
2010,05,05,12,09,14.50
2010,05,05,12,10,12.90
2010,05,05,12,11,8.10
2010,05,05,12,12,16.10
2010,05,05,12,13,16.10
2010,05,05,12,14,12.90
2010,05,05,12,15,9.60
2010,05,05,12,16,11.30
2010,05,05,12,17,14.50
2010,05,05,12,18,19.30
2010,05,05,12,19,19.30
2010,05,05,12,20,22.50
2010,05,05,12,21,20.90
2010,05,05,12,22,14.50
2010,05,05,12,23,19.30
2010,05,05,12,24,14.50
2010,05,05,12,25,14.50
2010,05,05,12,26,16.10
2010,05,05,12,27,12.90
2010,05,05,12,28,16.10
2010,05,05,12,29,17.70
2010,05,05,12,30,8.10
2010,05,05,12,31,16.10
2010,05,05,12,32,11.30
2010,05,05,12,33,16.10
2010,05,05,12,34,19.30
2010,05,05,12,35,9.60
2010,05,05,12,36,14.50
2010,05,05,12,37,16.10
2010,05,05,12,38,17.70
2010,05,05,12,39,11.30
2010,05,05,12,40,16.10
2010,05,05,12,41,9.60
2010,05,05,12,42,9.60
2010,05,05,12,43,16.10
2010,05,05,12,44,17.70
2010,05,05,12,45,20.90
2010,05,05,12,46,22.50
2010,05,05,12,47,17.70
2010,05,05,12,48,11.30
2010,05,05,12,49,17.70
2010,05,05,12,50,11.30
2010,05,05,12,51,24.20
2010,05,05,12,52,20.90
2010,05,05,12,53,19.30
2010,05,05,12,54,14.50
2010,05,05,12,55,14.50
2010,05,05,12,56,16.10
2010,05,05,12,57,14.50
2010,05,05,12,58,11.30
2010,05,05,12,59,9.60
2010,05,05,13,00,16.10
2010,05,05,13,01,12.90
2010,05,05,13,02,12.90
2010,05,05,13,03,8.10
2010,05,05,13,04,11.30
2010,05,05,13,05,9.60
2010,05,05,13,06,3.20
2010,05,05,13,07,11.30
2010,05,05,13,08,9.60
2010,05,05,13,09,6.40
2010,05,05,13,10,9.60
2010,05,05,13,11,22.50
2010,05,05,13,12,11.30
2010,05,05,13,13,16.10
2010,05,05,13,14,11.30
2010,05,05,13,15,20.90
2010,05,05,13,16,19.30
2010,05,05,13,17,14.50
2010,05,05,13,18,4.80
2010,05,05,13,19,8.10
2010,05,05,13,20,14.50
2010,05,05,13,21,17.70
2010,05,05,13,22,19.30
2010,05,05,13,23,9.60
2010,05,05,13,24,17.70
2010,05,05,13,25,14.50
2010,05,05,13,26,12.90
2010,05,05,13,27,14.50
2010,05,05,13,28,11.30
2010,05,05,13,29,12.90
2010,05,05,13,30,9.60
2010,05,05,13,31,9.60
2010,05,05,13,32,19.30
2010,05,05,13,33,24.20
2010,05,05,13,34,11.30
2010,05,05,13,35,17.70
2010,05,05,13,36,19.30
2010,05,05,13,37,19.30
2010,05,05,13,38,19.30
2010,05,05,13,39,11.30
2010,05,05,13,40,17.70
2010,05,05,13,41,12.90
2010,05,05,13,42,11.30
2010,05,05,13,43,11.30
2010,05,05,13,44,6.40
2010,05,05,13,45,19.30
2010,05,05,13,46,19.30
2010,05,05,13,47,16.10
2010,05,05,13,48,9.60
2010,05,05,13,49,8.10
2010,05,05,13,50,17.70
2010,05,05,13,51,16.10
2010,05,05,13,52,16.10
2010,05,05,13,53,9.60
2010,05,05,13,54,14.50
2010,05,05,13,55,17.70
2010,05,05,13,56,14.50
2010,05,05,13,57,11.30
2010,05,05,13,58,11.30
2010,05,05,13,59,11.30
2010,05,05,14,00,16.10
2010,05,05,14,01,17.70
2010,05,05,14,02,17.70
2010,05,05,14,03,11.30
2010,05,05,14,04,16.10
2010,05,05,14,05,11.30
2010,05,05,14,06,11.30
2010,05,05,14,07,6.40
2010,05,05,14,08,6.40
2010,05,05,14,09,11.30
2010,05,05,14,10,8.10
2010,05,05,14,11,8.10
2010,05,05,14,12,9.60
2010,05,05,14,13,4.80
2010,05,05,14,14,6.40
2010,05,05,14,15,22.50
2010,05,05,14,16,17.70
2010,05,05,14,17,16.10
2010,05,05,14,18,19.30
2010,05,05,14,19,16.10
2010,05,05,14,20,4.80
2010,05,05,14,21,16.10
2010,05,05,14,22,14.50
2010,05,05,14,23,6.40
2010,05,05,14,24,3.20
2010,05,05,14,25,6.40
2010,05,05,14,26,11.30
2010,05,05,14,27,14.50
2010,05,05,14,28,16.10
2010,05,05,14,29,14.50
2010,05,05,14,30,14.50
2010,05,05,14,31,14.50
2010,05,05,14,32,11.30
2010,05,05,14,33,9.60
2010,05,05,14,34,8.10
2010,05,05,14,35,3.20
2010,05,05,14,36,9.60
2010,05,05,14,37,9.60
2010,05,05,14,38,9.60
2010,05,05,14,39,12.90
2010,05,05,14,40,16.10
2010,05,05,14,41,14.50
2010,05,05,14,42,4.80
2010,05,05,14,43,16.10
2010,05,05,14,44,11.30
2010,05,05,14,45,14.50
2010,05,05,14,46,16.10
2010,05,05,14,47,22.50
2010,05,05,14,48,14.50
2010,05,05,14,49,11.30
2010,05,05,14,50,19.30
2010,05,05,14,51,22.50
2010,05,05,14,52,14.50
2010,05,05,14,53,16.10
2010,05,05,14,54,11.30
2010,05,05,14,55,11.30
2010,05,05,14,56,16.10
2010,05,05,14,57,19.30
2010,05,05,14,58,16.10
2010,05,05,14,59,19.30
2010,05,05,15,00,16.10
2010,05,05,15,01,19.30
2010,05,05,15,02,14.50
2010,05,05,15,03,6.40
2010,05,05,15,04,6.40
2010,05,05,15,05,11.30
2010,05,05,15,06,11.30
2010,05,05,15,07,16.10
2010,05,05,15,08,9.60
2010,05,05,15,09,14.50
2010,05,05,15,10,11.30
2010,05,05,15,11,4.80
2010,05,05,15,12,9.60
2010,05,05,15,13,14.50
2010,05,05,15,14,17.70
2010,05,05,15,15,11.30
2010,05,05,15,16,12.90
2010,05,05,15,17,19.30
2010,05,05,15,18,14.50
2010,05,05,15,19,8.10
2010,05,05,15,20,8.10
2010,05,05,15,21,4.80
2010,05,05,15,22,17.70
2010,05,05,15,23,17.70
2010,05,05,15,24,17.70
2010,05,05,15,25,16.10
2010,05,05,15,26,17.70
2010,05,05,15,27,20.90
2010,05,05,15,28,12.90
2010,05,05,15,29,14.50
2010,05,05,15,30,9.60
2010,05,05,15,31,16.10
2010,05,05,15,32,14.50
2010,05,05,15,33,14.50
2010,05,05,15,34,11.30
2010,05,05,15,35,17.70
2010,05,05,15,36,16.10
2010,05,05,15,37,14.50
2010,05,05,15,38,16.10
2010,05,05,15,39,16.10
2010,05,05,15,40,12.90
2010,05,05,15,41,9.60
2010,05,05,15,42,12.90
2010,05,05,15,43,11.30
2010,05,05,15,44,17.70
2010,05,05,15,45,12.90
2010,05,05,15,46,11.30
2010,05,05,15,47,11.30
2010,05,05,15,48,11.30
2010,05,05,15,49,16.10
2010,05,05,15,50,11.30
2010,05,05,15,51,14.50
2010,05,05,15,52,9.60
2010,05,05,15,53,8.10
2010,05,05,15,54,9.60
2010,05,05,15,55,14.50
2010,05,05,15,56,14.50
2010,05,05,15,57,19.30
2010,05,05,15,58,20.90
2010,05,05,15,59,19.30
2010,05,05,16,00,17.70
2010,05,05,16,01,17.70
2010,05,05,16,02,19.30
2010,05,05,16,03,22.50
2010,05,05,16,04,20.90
2010,05,05,16,05,20.90
2010,05,05,16,06,17.70
2010,05,05,16,07,16.10
2010,05,05,16,08,19.30
2010,05,05,16,09,20.90
2010,05,05,16,10,17.70
2010,05,05,16,11,20.90
2010,05,05,16,12,9.60
2010,05,05,16,13,22.50
2010,05,05,16,14,9.60
2010,05,05,16,15,16.10
2010,05,05,16,16,16.10
2010,05,05,16,17,17.70
2010,05,05,16,18,19.30
2010,05,05,16,19,19.30
2010,05,05,16,20,16.10
2010,05,05,16,21,11.30
2010,05,05,16,22,19.30
2010,05,05,16,23,16.10
2010,05,05,16,24,29.00
2010,05,05,16,25,25.70
2010,05,05,16,26,19.30
2010,05,05,16,27,17.70
2010,05,05,16,28,16.10
2010,05,05,16,29,20.90
2010,05,05,16,30,16.10
2010,05,05,16,31,19.30
2010,05,05,16,32,19.30
2010,05,05,16,33,17.70
2010,05,05,16,34,9.60
2010,05,05,16,35,16.10
2010,05,05,16,36,11.30
2010,05,05,16,37,14.50
2010,05,05,16,38,9.60
2010,05,05,16,39,20.90
2010,05,05,16,40,17.70
2010,05,05,16,41,17.70
2010,05,05,16,42,22.50
2010,05,05,16,43,25.70
2010,05,05,16,44,17.70
2010,05,05,16,45,17.70
2010,05,05,16,46,17.70
2010,05,05,16,47,16.10
2010,05,05,16,48,14.50
2010,05,05,16,49,19.30
2010,05,05,16,50,16.10
2010,05,05,16,51,11.30
2010,05,05,16,52,22.50
2010,05,05,16,53,24.20
2010,05,05,16,54,20.90
2010,05,05,16,55,25.70
2010,05,05,16,56,19.30
2010,05,05,16,57,22.50
2010,05,05,16,58,20.90
2010,05,05,16,59,25.70
2010,05,05,17,00,24.20
2010,05,05,17,01,17.70
2010,05,05,17,02,20.90
2010,05,05,17,03,19.30
2010,05,05,17,04,16.10
2010,05,05,17,05,12.90
2010,05,05,17,06,16.10
2010,05,05,17,07,17.70
2010,05,05,17,08,19.30
2010,05,05,17,09,19.30
2010,05,05,17,10,22.50
2010,05,05,17,11,22.50
2010,05,05,17,12,24.20
2010,05,05,17,13,20.90
2010,05,05,17,14,20.90
2010,05,05,17,15,27.40
2010,05,05,17,16,22.50
2010,05,05,17,17,22.50
2010,05,05,17,18,17.70
2010,05,05,17,19,24.20
2010,05,05,17,20,20.90
2010,05,05,17,21,17.70
2010,05,05,17,22,12.90
2010,05,05,17,23,19.30
2010,05,05,17,24,19.30
2010,05,05,17,25,20.90
2010,05,05,17,26,17.70
2010,05,05,17,27,20.90
2010,05,05,17,28,24.20
2010,05,05,17,29,17.70
2010,05,05,17,30,19.30
2010,05,05,17,31,14.50
2010,05,05,17,32,17.70
2010,05,05,17,33,17.70
2010,05,05,17,34,16.10
2010,05,05,17,35,16.10
2010,05,05,17,36,16.10
2010,05,05,17,37,17.70
2010,05,05,17,38,9.60
2010,05,05,17,39,8.10
2010,05,05,17,40,14.50
2010,05,05,17,41,16.10
2010,05,05,17,42,17.70
2010,05,05,17,43,16.10
2010,05,05,17,44,11.30
2010,05,05,17,45,9.60
2010,05,05,17,46,17.70
2010,05,05,17,47,19.30
2010,05,05,17,48,22.50
2010,05,05,17,49,14.50
2010,05,05,17,50,29.00
2010,05,05,17,51,20.90
2010,05,05,17,52,16.10
2010,05,05,17,53,11.30
2010,05,05,17,54,19.30
2010,05,05,17,55,19.30
2010,05,05,17,56,16.10
2010,05,05,17,57,12.90
2010,05,05,17,58,19.30
2010,05,05,17,59,19.30
2010,05,05,18,00,14.50
2010,05,05,18,01,20.90
2010,05,05,18,02,14.50
2010,05,05,18,03,17.70
2010,05,05,18,04,11.30
2010,05,05,18,05,9.60
2010,05,05,18,06,9.60
2010,05,05,18,07,17.70
2010,05,05,18,08,16.10
2010,05,05,18,09,22.50
2010,05,05,18,10,9.60
2010,05,05,18,11,17.70
2010,05,05,18,12,17.70
2010,05,05,18,13,14.50
2010,05,05,18,14,16.10
2010,05,05,18,15,19.30
2010,05,05,18,16,16.10
2010,05,05,18,17,8.10
2010,05,05,18,18,19.30
2010,05,05,18,19,24.20
2010,05,05,18,20,25.70
2010,05,05,18,21,22.50
2010,05,05,18,22,16.10
2010,05,05,18,23,20.90
2010,05,05,18,24,16.10
2010,05,05,18,25,16.10
2010,05,05,18,26,8.10
2010,05,05,18,27,19.30
2010,05,05,18,28,19.30
2010,05,05,18,29,19.30
2010,05,05,18,30,17.70
2010,05,05,18,31,14.50
2010,05,05,18,32,8.10
2010,05,05,18,33,19.30
2010,05,05,18,34,19.30
2010,05,05,18,35,14.50
2010,05,05,18,36,14.50
2010,05,05,18,37,19.30
2010,05,05,18,38,22.50
2010,05,05,18,39,19.30
2010,05,05,18,40,22.50
2010,05,05,18,41,17.70
2010,05,05,18,42,22.50
2010,05,05,18,43,17.70
2010,05,05,18,44,22.50
2010,05,05,18,45,22.50
2010,05,05,18,46,17.70
2010,05,05,18,47,14.50
2010,05,05,18,48,22.50
2010,05,05,18,49,22.50
2010,05,05,18,50,14.50
2010,05,05,18,51,17.70
2010,05,05,18,52,19.30
2010,05,05,18,53,19.30
2010,05,05,18,54,19.30
2010,05,05,18,55,16.10
2010,05,05,18,56,19.30
2010,05,05,18,57,20.90
2010,05,05,18,58,24.20
2010,05,05,18,59,20.90
2010,05,05,19,00,24.20
2010,05,05,19,01,17.70
2010,05,05,19,02,19.30
2010,05,05,19,03,24.20
2010,05,05,19,04,17.70
2010,05,05,19,05,9.60
2010,05,05,19,06,20.90
2010,05,05,19,07,20.90
2010,05,05,19,08,19.30
2010,05,05,19,09,27.40
2010,05,05,19,10,22.50
2010,05,05,19,11,16.10
2010,05,05,19,12,16.10
2010,05,05,19,13,19.30
2010,05,05,19,14,20.90
2010,05,05,19,15,14.50
2010,05,05,19,16,20.90
2010,05,05,19,17,14.50
2010,05,05,19,18,9.60
2010,05,05,19,19,9.60
2010,05,05,19,20,14.50
2010,05,05,19,21,12.90
2010,05,05,19,22,14.50
2010,05,05,19,23,11.30
2010,05,05,19,24,14.50
2010,05,05,19,25,11.30
2010,05,05,19,26,19.30
2010,05,05,19,27,11.30
2010,05,05,19,28,16.10
2010,05,05,19,29,19.30
2010,05,05,19,30,16.10
2010,05,05,19,31,19.30
2010,05,05,19,32,17.70
2010,05,05,19,33,16.10
2010,05,05,19,34,16.10
2010,05,05,19,35,11.30
2010,05,05,19,36,9.60
2010,05,05,19,37,11.30
2010,05,05,19,38,14.50
2010,05,05,19,39,12.90
2010,05,05,19,40,11.30
2010,05,05,19,41,20.90
2010,05,05,19,42,9.60
2010,05,05,19,43,20.90
2010,05,05,19,44,20.90
2010,05,05,19,45,22.50
2010,05,05,19,46,16.10
2010,05,05,19,47,19.30
2010,05,05,19,48,17.70
2010,05,05,19,49,12.90
2010,05,05,19,50,17.70
2010,05,05,19,51,20.90
2010,05,05,19,52,20.90
2010,05,05,19,53,20.90
2010,05,05,19,54,22.50
2010,05,05,19,55,17.70
2010,05,05,19,56,19.30
2010,05,05,19,57,24.20
2010,05,05,19,58,16.10
2010,05,05,19,59,8.10
2010,05,05,20,00,16.10
2010,05,05,20,01,14.50
2010,05,05,20,02,14.50
2010,05,05,20,03,17.70
2010,05,05,20,04,24.20
2010,05,05,20,05,14.50
2010,05,05,20,06,11.30
2010,05,05,20,07,11.30
2010,05,05,20,08,11.30
2010,05,05,20,09,19.30
2010,05,05,20,10,20.90
2010,05,05,20,11,11.30
2010,05,05,20,12,19.30
2010,05,05,20,13,19.30
2010,05,05,20,14,14.50
2010,05,05,20,15,17.70
2010,05,05,20,16,16.10
2010,05,05,20,17,19.30
2010,05,05,20,18,24.20
2010,05,05,20,19,16.10
2010,05,05,20,20,17.70
2010,05,05,20,21,16.10
2010,05,05,20,22,19.30
2010,05,05,20,23,11.30
2010,05,05,20,24,14.50
2010,05,05,20,25,16.10
2010,05,05,20,26,14.50
2010,05,05,20,27,8.10
2010,05,05,20,28,16.10
2010,05,05,20,29,19.30
2010,05,05,20,30,14.50
2010,05,05,20,31,17.70
2010,05,05,20,32,20.90
2010,05,05,20,33,20.90
2010,05,05,20,34,16.10
2010,05,05,20,35,22.50
2010,05,05,20,36,14.50
2010,05,05,20,37,17.70
2010,05,05,20,38,19.30
2010,05,05,20,39,20.90
2010,05,05,20,40,24.20
2010,05,05,20,41,20.90
2010,05,05,20,42,19.30
2010,05,05,20,43,16.10
2010,05,05,20,44,20.90
2010,05,05,20,45,17.70
2010,05,05,20,46,17.70
2010,05,05,20,47,17.70
2010,05,05,20,48,16.10
2010,05,05,20,49,14.50
2010,05,05,20,50,27.40
2010,05,05,20,51,17.70
2010,05,05,20,52,29.00
2010,05,05,20,53,24.20
2010,05,05,20,54,20.90
2010,05,05,20,55,16.10
2010,05,05,20,56,16.10
2010,05,05,20,57,24.20
2010,05,05,20,58,16.10
2010,05,05,20,59,14.50
2010,05,05,21,00,22.50
2010,05,05,21,01,22.50
2010,05,05,21,02,19.30
2010,05,05,21,03,19.30
2010,05,05,21,04,20.90
2010,05,05,21,05,22.50
2010,05,05,21,06,27.40
2010,05,05,21,07,25.70
2010,05,05,21,08,16.10
2010,05,05,21,09,24.20
2010,05,05,21,10,29.00
2010,05,05,21,11,29.00
2010,05,05,21,12,29.00
2010,05,05,21,13,25.70
2010,05,05,21,14,25.70
2010,05,05,21,15,25.70
2010,05,05,21,16,22.50
2010,05,05,21,17,27.40
2010,05,05,21,18,30.60
2010,05,05,21,19,25.70
2010,05,05,21,20,17.70
2010,05,05,21,21,24.20
2010,05,05,21,22,22.50
2010,05,05,21,23,25.70
2010,05,05,21,24,16.10
2010,05,05,21,25,20.90
2010,05,05,21,26,33.80
2010,05,05,21,27,24.20
2010,05,05,21,28,22.50
2010,05,05,21,29,27.40
2010,05,05,21,30,29.00
2010,05,05,21,31,22.50
2010,05,05,21,32,19.30
2010,05,05,21,33,16.10
2010,05,05,21,34,29.00
2010,05,05,21,35,22.50
2010,05,05,21,36,38.60
2010,05,05,21,37,25.70
2010,05,05,21,38,24.20
2010,05,05,21,39,27.40
2010,05,05,21,40,33.80
2010,05,05,21,41,25.70
2010,05,05,21,42,24.20
2010,05,05,21,43,27.40
2010,05,05,21,44,22.50
2010,05,05,21,45,19.30
2010,05,05,21,46,20.90
2010,05,05,21,47,17.70
2010,05,05,21,48,20.90
2010,05,05,21,49,19.30
2010,05,05,21,50,20.90
2010,05,05,21,51,22.50
2010,05,05,21,52,17.70
2010,05,05,21,53,25.70
2010,05,05,21,54,22.50
2010,05,05,21,55,22.50
2010,05,05,21,56,24.20
2010,05,05,21,57,22.50
2010,05,05,21,58,22.50
2010,05,05,21,59,17.70
2010,05,05,22,00,19.30
2010,05,05,22,01,17.70
2010,05,05,22,02,17.70
2010,05,05,22,03,19.30
2010,05,05,22,04,22.50
2010,05,05,22,05,16.10
2010,05,05,22,06,30.60
2010,05,05,22,07,24.20
2010,05,05,22,08,19.30
2010,05,05,22,09,22.50
2010,05,05,22,10,22.50
2010,05,05,22,11,20.90
2010,05,05,22,12,16.10
2010,05,05,22,13,19.30
2010,05,05,22,14,24.20
2010,05,05,22,15,19.30
2010,05,05,22,16,22.50
2010,05,05,22,17,27.40
2010,05,05,22,18,25.70
2010,05,05,22,19,25.70
2010,05,05,22,20,20.90
2010,05,05,22,21,24.20
2010,05,05,22,22,25.70
2010,05,05,22,23,24.20
2010,05,05,22,24,24.20
2010,05,05,22,25,24.20
2010,05,05,22,26,29.00
2010,05,05,22,27,20.90
2010,05,05,22,28,20.90
2010,05,05,22,29,16.10
2010,05,05,22,30,19.30
2010,05,05,22,31,24.20
2010,05,05,22,32,25.70
2010,05,05,22,33,24.20
2010,05,05,22,34,25.70
2010,05,05,22,35,25.70
2010,05,05,22,36,32.20
2010,05,05,22,37,27.40
2010,05,05,22,38,20.90
2010,05,05,22,39,25.70
2010,05,05,22,40,17.70
2010,05,05,22,41,20.90
2010,05,05,22,42,20.90
2010,05,05,22,43,25.70
2010,05,05,22,44,16.10
2010,05,05,22,45,27.40
2010,05,05,22,46,27.40
2010,05,05,22,47,32.20
2010,05,05,22,48,24.20
2010,05,05,22,49,22.50
2010,05,05,22,50,25.70
2010,05,05,22,51,19.30
2010,05,05,22,52,27.40
2010,05,05,22,53,35.40
2010,05,05,22,54,24.20
2010,05,05,22,55,25.70
2010,05,05,22,56,22.50
2010,05,05,22,57,24.20
2010,05,05,22,58,22.50
2010,05,05,22,59,27.40
2010,05,05,23,00,19.30
2010,05,05,23,01,24.20
2010,05,05,23,02,24.20
2010,05,05,23,03,32.20
2010,05,05,23,04,22.50
2010,05,05,23,05,32.20
2010,05,05,23,06,25.70
2010,05,05,23,07,20.90
2010,05,05,23,08,20.90
2010,05,05,23,09,19.30
2010,05,05,23,10,14.50
2010,05,05,23,11,17.70
2010,05,05,23,12,19.30
2010,05,05,23,13,19.30
2010,05,05,23,14,14.50
2010,05,05,23,15,16.10
2010,05,05,23,16,16.10
2010,05,05,23,17,19.30
2010,05,05,23,18,24.20
2010,05,05,23,19,17.70
2010,05,05,23,20,16.10
2010,05,05,23,21,27.40
2010,05,05,23,22,19.30
2010,05,05,23,23,22.50
2010,05,05,23,24,16.10
2010,05,05,23,25,11.30
2010,05,05,23,26,14.50
2010,05,05,23,27,22.50
2010,05,05,23,28,22.50
2010,05,05,23,29,17.70
2010,05,05,23,30,22.50
2010,05,05,23,31,16.10
2010,05,05,23,32,16.10
2010,05,05,23,33,16.10
2010,05,05,23,34,25.70
2010,05,05,23,35,20.90
2010,05,05,23,36,24.20
2010,05,05,23,37,20.90
2010,05,05,23,38,19.30
2010,05,05,23,39,19.30
2010,05,05,23,40,11.30
2010,05,05,23,41,24.20
2010,05,05,23,42,19.30
2010,05,05,23,43,20.90
2010,05,05,23,44,19.30
2010,05,05,23,45,17.70
2010,05,05,23,46,29.00
2010,05,05,23,47,17.70
2010,05,05,23,48,25.70
2010,05,05,23,49,14.50
2010,05,05,23,50,17.70
2010,05,05,23,51,25.70
2010,05,05,23,52,17.70
2010,05,05,23,53,24.20